Location: Recife
(8.0585°S, 34.8848°W)
Time: 10:21:16
(UTC-03:00)

Transit 2A - Pass Details

Date: 17 April 2026
Orbit: 594 x 950 km, 66.7° (Epoch: 14 May)

Event Time Altitude Azimuth Distance (km) Brightness Sun altitude
Rises 20:24:34 0° 214° (SSW) 3,441 - -46.9°
Reaches altitude 10° 20:27:06 10° 221° (SW) 2,546 - -47.5°
Maximum altitude 20:32:41 41° 289° (WNW) 1,305 - -48.9°
Drops below altitude 10° 20:38:30 10° 358° (N) 2,654 - -50.3°
Sets 20:41:13 0° 5° (N) 3,601 - -51.0°
